Regional Weather Roundup
Issued by NWS Huntsville, AL

Home | Current Version | Previous Version | Text Only | Print | Product List | Glossary On
Versions: 1 2 3 4 5 6 7 8 9 10 11 12 13 14 15 16 17 18 19 20 21 22 23 24 25 26 27
000
ASUS44 KHUN 231410
RWRHUN

WEATHER ROUNDUP FOR THE TENNESSEE VALLEY
NATIONAL WEATHER SERVICE HUNTSVILLE AL
800 AM CST THU FEB 23 2017

ALZ001>004-231500-
NORTHWEST ALABAMA

CITY           SKY/WX    TMP DP  RH WIND       PRES   REMARKS
COURTLAND HCN    N/A     52 N/A N/A CALM        N/A
RUSSELLVILLE     N/A     57 N/A N/A MISG        N/A
SHOALS AIRPORT SUNNY     57  55  93 E3        29.88S FOG
SHOALS TVA RES   N/A     55 N/A N/A MISG        N/A
$$

ALZ005>007-016-231500-
NORTH CENTRAL ALABAMA

CITY           SKY/WX    TMP DP  RH WIND       PRES   REMARKS
CULLMAN AG STN   N/A     55 N/A N/A CALM        N/A
DECATUR AP     SUNNY     58  58 100 CALM      29.88R
HUNTSVILLE AP  MOSUNNY   62  59  90 SE8       29.88R
MERIDIANVILLE  SUNNY     61  54  77 SE7       29.89R
REDSTONE ARSN  SUNNY     60  58  92 S7        29.87R
VINEMONT AP    FAIR      59  56  90 S3        29.90S
$$

ALZ008>010-231500-
NORTHEAST ALABAMA

CITY           SKY/WX    TMP DP  RH WIND       PRES   REMARKS
ALBERTVILLE    PTSUNNY   59  59 100 E5        29.89S
FORT PAYNE     CLOUDY    61  52  72 CALM      29.91R
SCOTTSBORO AP  CLOUDY    59  59 100 CALM      29.91R
SCOTTSBORO HCN   N/A     55 N/A N/A MISG        N/A
VALLEY HEAD      N/A     59 N/A N/A MISG        N/A
$$

TNZ076-096-097-231500-
SOUTHEASTERN MIDDLE TENNESSEE

CITY           SKY/WX    TMP DP  RH WIND       PRES   REMARKS
TULLAHOMA      SUNNY     59  55  88 S7        29.90R
WINCHESTER     MOSUNNY   61  55  82 SE9       29.90R
$$

...SURROUNDING SITES...

CITY           SKY/WX    TMP DP  RH WIND       PRES   REMARKS
ATLANTA        MOSUNNY   59  56  89 E9        29.92R
ANNISTON       MOSUNNY   60  57  89 E7        29.90R
BIRMINGHAM     MOSUNNY   62  58  86 CALM      29.90R
CHATTANOOGA    PTSUNNY   55  54  96 CALM      29.92R FOG
CORINTH        CLOUDY    57  55  94 SE6       29.84R
DALTON         SUNNY     54  54 100 CALM      29.92S
GADSDEN        CLOUDY    61  58  90 E8        29.91R
GOLDEN TRNGL   FOG       55  50  82 CALM      29.83R VSB 1/2
HALEYVILLE     CLOUDY    57  56  96 VRB5      29.90R
JACKSON TN     SUNNY     59  57  93 S5        29.82S
MEMPHIS        PTSUNNY   60  57  89 S8        29.81R
NASHVILLE      CLOUDY    58  55  90 S6        29.88R
OXFORD MS      FAIR      55  55 100 SE8       29.85R
ROME           FOG       52  50  93 CALM      29.91R VSB<1/4
SAVANNAH       CLOUDY    57  55  94 SE3       29.85R
TUPELO         CLOUDY    56  54  93 E6        29.85S
TUSCALOOSA     CLOUDY    61  59  93 CALM      29.87R
$$

...GULF COAST WEATHER...

CITY           SKY/WX    TMP DP  RH WIND       PRES   REMARKS
GULFPORT       SUNNY     63  60  90 E5        29.83R
PASCAGOULA     SUNNY     61  57  87 NE6       29.84R
MOBILE         PTSUNNY   61  59  93 NE5       29.85R FOG
GULF SHORES    FOG       58  58 100 E3        29.84R VSB 1/4
PENSACOLA      CLOUDY    62  60  93 E8        29.83R FOG
DESTIN         SUNNY     66  66 100 N7        29.83R
PANAMA CITY    CLOUDY    62  61  97 NE6       29.82R
APPALACHICOLA  SUNNY     66  64  93 NE12      29.79R
$$





USA.gov is the U.S. government's official web portal to all federal, state and local government web resources and services.